Погода в Уране

Россия / Оренбургская область     52°31′38″N   53°04′59″E
темп.,
°C
ветер,
м/с
пор.,
м/с
влажн.,
%
обл.,
%
осадки,
мм/ч
давл.,
гПа
погр.,
м
16 апреля, пт
пт1623:00+13вюв33505 0.0 101921
02:00+11вюв225819 0.0 101918
05:00+9в22645 0.0 101916
08:00+10в346325 0.0 101977
11:00+17в45425 0.0 1019422
14:00+21в45305 0.0 10191503
17:00+21в45275 0.0 10182312
20:00+17всв454292 0.0 101871
17 апреля, сб
сб1723:00+13всв354471 0.0 101966
02:00+11св47545 0.0 1020106
05:00+9св48805 0.0 1020142
08:00+10всв37766 0.0 1021175
11:00+15всв45495 0.0 1021501
14:00+19всв55365 0.0 10201441
17:00+19всв44331 0.0 10201806
20:00+16св35470 0.0 102070
18 апреля, вс
вс1823:00+12св48670 0.0 1021163
02:00+10св48750 0.0 1021162
05:00+8св486729 0.0 1022177
08:00+8св486499 0.0 1022235
11:00+13всв564199 0.0 1022585
14:00+16всв5536100 0.0 10211016
17:00+16св5535100 0.0 10211290
20:00+13св5843100 0.0 1021254
19 апреля, пн
пн1923:00+10всв51155100 0.0 1022348
02:00+7св5116768 0.0 1023368
05:00+7всв51075100 0.0 1023386
08:00+6в71164100 0.0 1024544
11:00+8в81051100 0.0 1025871
14:00+10в8947100 0.0 10261289
17:00+8в91052100 0.0 10271173
20:00+6в81260100 0.0 10281019
20 апреля, вт
вт2023:00+6вюв81248100 0.0 1030987
02:00+4в8144753 0.0 1030724
05:00+1в814515 0.0 1032625
08:00+1вюв814471 0.0 1033661
11:00+5вюв910340 0.0 1033974
14:00+8вюв810271 0.0 10311249
17:00+10вюв892598 0.0 10301378
20:00+7вюв610345 0.0 1030469